Beijing-3C 04

operational
NORAD ID: 59808 Int'l Des: 2024-094 Owner: 21AT Country: CN
LEOCIRCULARRETROGRADESSO

Über Beijing-3C 04

Beschreibung wird geladen...

Live-Position

3D-Globus wird geladen...

Nächste Überflüge

Höhenverlauf

Altitude vs Time

uPlot chart will show altitude changes over time

Zweizeiliger Elementsatz

1 59808U 24094D 26063.21225387 .00012486 00000-0 64696-3 0 9991
2 59808 97.3939 136.4897 0005675 239.8836 120.1835 15.16309658 99240
Epoch: 4. März 2026 • Age: 22 hours

Aktueller Status

Höhe 528.0 km
Geschwindigkeit 7.60 km/s
Subsatellitenpunkt -38.61°S, 179.83°W
Startdatum 20. Mai 2024
Alter 1.7 years
Typ other

Technische Details

Klassifizierung Payload
Masse 1000.00 kg
Trockenmasse 1000.00 kg
Gesamtmasse 1000.00 kg
Länge 1.00 m
Durchmesser 1.00 m
Spannweite 5.00 m
Form Hex cyl + 3 pan
Hersteller DFHZ
Bus-Typ BJ3C
Phasenstatus In Orbit
Besitzer/Staat 21AT/CN

Große Konstellationen

Loading constellations...